Tegucigalpa, Honduras

7:03 AM CST on June 28, 2017 (GMT -0600)
Toncontin International

Weather History for MHTG - November, 2012

Change the Weather History Date:

Friday, November 2, 2012

  Actual Average Record
Temperature  
Mean Temperature 66 °F -  
Max Temperature 79 °F 76 °F 87 °F (2015)
Min Temperature 52 °F 60 °F 52 °F (2012)
Growing Degree Days 16 (Base 50)    
Moisture  
Dew Point 65 °F    
Average Humidity 84    
Maximum Humidity 100    
Minimum Humidity 56    
Precipitation  
Precipitation 0.00 in 0.05 in - ()
Sea Level Pressure  
Sea Level Pressure 30.05 in    
Wind  
Wind Speed 6 mph ()    
Max Wind Speed 13 mph    
Max Gust Speed -    
Visibility 5.6 miles    
Events      
Averages and records for this station are not official NWS values.
T = Trace of Precipitation, MM = Missing Value Source: Averaged Metar Reports

Daily Weather History Graph

Daily Weather History Graph

Search for Another Location

Airport or City:

Trip Planner

Search our weather history database for the weather conditions in past years. The results will help you decide how hot, cold, wet, or windy it might be!

Date:

Astronomy

Nov. 02, 2012 Rise Set
Actual Time 5:44 AM CST 5:20 PM CST
Civil Twilight 5:22 AM CST 5:42 PM CST
Nautical Twilight 4:56 AM CST 6:07 PM CST
Astronomical Twilight 4:31 AM CST 6:33 PM CST
Moon 8:25 PM CST (11/2) 8:45 AM CST (11/2)
Length of Visible Light 12h 20m
Length of Day
11h 36m
Waning Gibbous, 87% of the Moon is Illuminated
Nov 2
Waning Gibbous
Nov 6
Last Quarter
Nov 13
New
Nov 20
First Quarter
Nov 28
Full

Hourly Weather History & Observations

Time (CST) Temp. Dew Point Humidity Pressure Visibility Wind Dir Wind Speed Gust Speed Precip Events Conditions
12:00 AM 66 °F 64 °F 90% 29.98 in 6 mi NNE 5.8 mph - -   Haze
12:00 AM 66.2 °F 64.4 °F 94% 30.12 in 6.2 mi NNE 5.8 mph - N/A   Mostly Cloudy
1:00 AM 66.2 °F 64.4 °F 94% 30.12 in 6.2 mi NNE 5.8 mph - N/A   Mostly Cloudy
2:00 AM - - N/A% 30.12 in - North - - N/A   Mostly Cloudy
3:00 AM 63 °F - %  in 4 mi NNE 3.5 mph - -  
3:00 AM 62.6 °F 62.6 °F 100% 30.06 in 3.7 mi NNE 3.5 mph - N/A   Scattered Clouds
4:00 AM 62.6 °F 62.6 °F 100% 30.06 in 3.7 mi NNE 3.5 mph - N/A   Scattered Clouds
5:00 AM 64.4 °F 64.4 °F 100% 30.09 in 3.7 mi NNE 4.6 mph - N/A   Mostly Cloudy
6:00 AM 64 °F 64 °F 98% 29.97 in 4 mi NNE 3.5 mph - -   Mist
6:00 AM 64.4 °F 64.4 °F 100% 30.09 in 3.7 mi NNE 3.5 mph - N/A   Mostly Cloudy
7:00 AM 64.4 °F 64.4 °F 100% 30.12 in 3.7 mi NNE 5.8 mph - N/A   Mostly Cloudy
8:00 AM 66.2 °F 64.4 °F 94% 30.12 in 4.3 mi NNE 8.1 mph - N/A   Mostly Cloudy
9:00 AM 69.8 °F 64.4 °F 83% 30.15 in 4.3 mi North 9.2 mph - N/A   Mostly Cloudy
10:00 AM 71.6 °F 64.4 °F 78% 30.12 in 6.2 mi North 9.2 mph - N/A   Mostly Cloudy
11:00 AM 73.4 °F 64.4 °F 73% 30.12 in 6.2 mi North 11.5 mph - N/A   Mostly Cloudy
12:00 PM 78 °F 65 °F 56% 29.87 in 9 mi North 8.1 mph - -   Haze
12:00 PM 77.0 °F 66.2 °F 69% 30.09 in 6.2 mi North 8.1 mph - N/A   Mostly Cloudy
2:00 PM 77.0 °F 62.6 °F 61% 30.04 in 6.2 mi NNE 5.8 mph - N/A   Unknown
3:00 PM 76 °F 63 °F 56% 29.81 in 8 mi East 8.1 mph - -   Haze
3:00 PM 77.0 °F 62.6 °F 61% 30.04 in 6.2 mi East 8.1 mph - N/A   Unknown
4:00 PM 77.0 °F 64.4 °F 65% 30.01 in 6.2 mi North 11.5 mph - N/A   Scattered Clouds
5:00 PM 75.2 °F 64.4 °F 69% 30.04 in 6.2 mi North 12.7 mph - N/A   Scattered Clouds
6:00 PM 71 °F 65 °F 74% 29.86 in 7 mi North 8.1 mph - -   Haze
6:00 PM 71.6 °F 64.4 °F 78% 30.04 in 6.2 mi North 8.1 mph - N/A   Scattered Clouds
7:00 PM 69.8 °F 66.2 °F 88% 30.04 in 6.2 mi NNE 8.1 mph - N/A   Scattered Clouds
8:00 PM 69.8 °F 66.2 °F 88% 30.09 in 6.2 mi NNE 6.9 mph - N/A   Scattered Clouds
9:00 PM 69 °F 66 °F 89% 29.96 in 6 mi North 8.1 mph - -   Haze
9:00 PM 68.0 °F 66.2 °F 94% 30.12 in 6.2 mi North 8.1 mph - N/A   Mostly Cloudy
10:00 PM 68.0 °F 66.2 °F 94% 10.20 in 6.2 mi NNE 9.2 mph - N/A   Mostly Cloudy
11:00 PM 68.0 °F 66.2 °F 94% 30.12 in 5.0 mi NNE 8.1 mph - N/A   Mostly Cloudy